ARIANE 5 DEB (SYLDA), 45028

Orbit data source: Space-Track

ARIANE 5 DEB (SYLDA), 45028 is space debris originally from a launch on Thu, 16 Jan 2020 UTC launched from the French Guiana (FRGUI). Debris objects in space refer to the collection of defunct objects orbiting the Earth. Examples of debris include non-operational satellites, rocket bodies, and fragments generated from explosions, collisions, or faulty payload assembly.

Loading next visibility...
Identifier
45028, 2020-005C
Orbit
Active
Country
Flag of FRFR
Related business
Manufacturer
ADS/Bremen
Mission
Spacecraft
Bus & Motor
SYLDA 5, Unknown motor
Mass
440 kg wet, 440 kg dry
Launch date (UTC)
2020-01-16 (6 years ago)
Launch vehicle
Unknown
Launch site
French Guiana (FRGUI)
Object type
Payload
Rocket body
Debris
Shape & HBR
Cyl, Unknown HBR
Radar Cross Section
27.391 m², Large (>1 m²)

Expand to show TLE details & history
Last TLE update: 3 days ago

TLE from 3 days ago
0 ARIANE 5 DEB (SYLDA)
1 45028U 20005C   26170.87023352  .00169535  00000-0  57925-2 0  9991
2 45028   6.1049 205.5919 4484492 234.1794  75.4541  6.61438195 86358
Epoch: 2026-06-19T20:53Z
TLE epoch observation values (Epoch: 2026-06-19T20:53:08.176Z)
Latitude
Longitude
-15.78517°
Altitude
6,605.139 km
Speed
5.306 km/s
True Right ascension
13h 42m 22s
True Declination
0° 00' 00"
Sunlit
Object was in daylight at epoch
Visualization orbit readout
Latitude
Unknown
Longitude
Unknown
Altitude
Unknown
Speed
Unknown
Apparent Right ascension
Unknown
Apparent Declination
Unknown
Sunlit
N/A
Visualization observer readout
Local Sidereal Time
00:25:32
Azimuth
Unknown
Elevation
Unknown
Doppler factor
Unknown
Orbital elements
Apogee altitude
10,993.035 km
Perigee altitude
236.581 km
Semi-major axis
11,992.945 km
Eccentricity
0.44845
Inclination
6.1049°
RAAN
205.5919°
Arg. of periapsis
234.1794°
True anomaly
125.83079°
Mean anomaly
75.4541°
Eccentric anomaly
100.70147°
Mean motion
1.65255 °/min
Orbital period
217.85 mins
BSTAR
0.0057925
Loading maneuver chart data...
Computing Atmospheric mass density...
Loading historical data...
Loading historical data...
Loading historical data...
Loading historical data...
Loading historical data...
Loading historical data...
Loading historical data...
Other satellites on launch #5 in the year 2020 (2020-01-16 UTC)

Documentation

Showing up to 5 results
|